Wind_Speed
7 8 9 11 12 12 13 14 14 14 14 15 15 15 14 12 11 11 12 13 13 12 12 12 11 12 11 12 13 12 11 10 10 11 14 14 15 15 17 20 23 23
9 10 11 11 11 12 12 13 13 14 14 15 15 14 13 12 12 12 13 14 15 15 15 14 14 14 13 13 14 14 14 13 12 11 11 11 12 13 14 17 20 22
11 11 11 11 11 11 12 12 12 12 13 13 14 13 13 12 12 13 14 15 16 16 16 17 16 17 16 16 16 17 16 15 15 14 13 12 12 12 13 15 17 19
12 12 12 11 11 11 10 10 10 11 12 12 13 13 13 13 13 14 15 16 17 18 18 18 18 18 18 19 19 19 18 17 17 17 16 15 14 14 14 15 16 18
12 12 12 11 11 10 10 10 10 11 12 12 13 14 14 14 14 15 16 17 18 19 20 19 19 19 18 19 19 20 19 18 18 18 18 17 17 16 16 16 17 18
12 12 11 12 12 11 10 10 11 12 12 13 13 14 14 14 14 15 15 16 16 17 18 18 18 17 17 18 18 19 20 20 19 18 18 19 18 18 17 17 17 17
11 11 11 12 12 12 11 11 12 12 12 12 13 13 14 14 14 15 15 15 16 16 16 16 15 15 15 15 17 18 20 21 21 20 20 21 20 19 18 18 18 18
11 11 11 12 12 12 12 12 12 12 12 12 12 13 14 15 15 15 15 15 15 15 15 15 15 14 13 14 15 16 18 20 21 22 22 22 22 21 19 18 19 19
11 11 12 12 12 11 11 11 11 12 12 13 13 15 16 16 16 16 16 16 16 15 15 15 15 14 14 14 14 14 16 17 18 19 20 21 21 20 19 19 20 20
11 12 12 12 12 11 10 10 11 12 13 15 16 17 18 18 18 17 16 16 16 16 16 15 15 15 15 15 15 15 15 16 16 18 19 20 20 20 20 20 21 21
12 13 13 12 12 10 9 10 11 13 15 16 18 19 20 20 19 18 17 17 17 17 17 16 16 15 16 16 16 16 16 16 17 17 19 20 21 21 21 21 21 21
14 14 13 12 11 9 9 11 12 14 16 18 20 21 21 21 21 20 19 18 17 17 17 17 16 16 16 16 16 17 17 17 17 18 18 19 20 22 22 22 22 22
15 14 13 12 11 9 10 12 14 16 18 20 22 22 23 23 22 22 20 18 18 17 17 17 17 17 17 17 17 17 18 18 18 18 19 19 19 20 21 22 23 23
15 14 12 12 11 10 12 14 16 17 19 21 23 23 23 24 24 24 22 19 18 17 17 17 18 18 17 17 17 18 18 19 19 19 19 20 20 20 21 22 23 23
14 13 12 13 12 12 13 15 17 18 20 22 23 24 24 24 25 25 23 20 18 17 17 17 18 18 17 17 17 18 18 19 20 20 20 20 21 21 21 21 22 23
14 13 13 14 14 15 15 17 18 19 22 23 24 24 24 24 25 25 22 20 18 17 17 17 17 17 17 17 17 17 18 19 20 21 22 22 22 22 22 22 22 23
14 15 16 16 16 16 17 18 19 21 23 24 24 25 25 25 25 24 22 19 17 17 17 17 17 17 17 17 16 17 18 19 20 22 22 23 23 23 24 23 23 23
15 17 17 17 17 17 17 19 20 22 23 24 25 26 26 27 26 24 22 19 18 18 17 17 18 17 17 17 17 17 18 19 20 22 23 23 24 24 25 25 25 24
18 19 19 18 18 17 18 19 21 23 24 25 26 27 28 28 27 25 23 21 20 20 20 20 20 19 18 17 17 17 18 19 20 21 23 23 24 25 25 26 26 26
20 20 20 19 18 19 20 21 22 23 24 25 27 28 28 28 27 25 23 22 21 21 21 21 21 21 20 19 19 19 19 20 21 22 23 23 24 24 25 26 26 26
21 20 19 19 19 20 21 21 22 24 25 26 27 28 28 27 26 24 23 23 22 22 22 22 22 21 20 20 21 21 21 22 22 22 23 23 24 24 24 25 26 26
19 19 19 19 19 20 21 22 23 25 26 27 27 28 28 27 25 24 24 24 24 24 24 24 23 22 21 22 23 23 23 23 23 23 23 23 24 24 24 25 25 25
17 18 19 19 20 21 22 23 24 25 26 27 28 28 28 27 26 25 26 26 27 27 26 26 26 25 24 24 25 26 27 26 25 25 24 23 23 24 24 24 24 24
16 17 18 19 20 22 23 24 25 26 27 27 27 28 28 27 26 26 26 27 28 28 27 27 28 27 27 27 27 28 28 27 27 27 27 26 24 24 24 24 25 24
15 16 18 19 21 22 24 26 27 27 27 27 26 26 26 25 26 26 27 28 29 29 29 29 30 29 28 28 28 27 28 28 27 28 29 29 27 26 25 25 25 25
15 17 18 20 22 24 26 27 27 27 26 26 26 25 25 25 26 26 28 29 29 30 30 30 30 30 29 28 27 27 27 27 27 28 30 31 30 29 28 27 27 27
Wind_Direction
348 337 328 324 322 322 323 321 319 316 314 313 313 313 313 309 301 289 281 278 277 276 275 276 279 282 283 287 293 297 303 309 305 289 278 272 271 270 264 258 255 254
342 334 329 326 321 319 317 314 312 310 309 310 312 314 312 306 298 290 284 281 279 278 276 275 275 277 278 280 286 290 296 300 299 297 293 284 282 279 271 264 259 254
334 334 334 330 324 319 314 311 311 309 309 311 312 313 311 304 295 287 283 281 280 280 279 278 276 276 278 280 282 285 289 292 293 294 293 289 293 292 282 273 265 257
329 333 333 330 327 323 317 314 313 310 311 310 310 309 306 301 294 288 285 282 282 281 280 280 279 278 278 280 282 284 285 286 285 286 287 287 290 291 289 284 274 265
329 331 331 332 332 328 321 317 313 310 311 310 310 311 308 306 301 295 292 289 287 286 284 283 281 280 278 277 278 279 280 281 280 280 281 280 280 283 285 284 280 275
329 328 329 332 334 331 325 320 318 317 317 316 318 319 317 316 312 308 305 302 299 297 294 292 287 282 277 274 272 272 273 274 276 278 277 276 276 278 280 281 281 280
327 325 327 332 334 333 329 329 329 329 327 326 326 327 325 323 320 316 313 309 307 305 303 301 297 291 282 275 272 269 269 270 272 274 276 278 278 278 279 281 281 281
328 327 331 336 336 334 335 337 337 337 336 334 333 333 331 329 326 321 316 312 309 306 303 301 299 298 292 284 278 274 272 271 271 272 274 277 279 278 277 278 278 278
328 331 337 338 337 339 342 343 343 345 345 344 342 340 337 334 329 324 320 316 312 308 304 299 295 295 293 290 286 282 278 275 273 273 274 275 276 276 275 273 273 273
330 335 338 337 336 341 348 351 352 353 351 348 345 342 339 336 331 326 321 317 315 312 307 302 295 290 289 290 289 286 283 279 275 272 272 272 273 274 273 272 271 271
332 334 335 334 334 339 350 355 354 351 350 347 344 342 339 337 333 328 322 318 316 314 311 307 301 293 288 287 287 287 285 282 278 273 270 270 270 271 271 271 271 270
330 330 330 329 328 336 348 350 348 346 345 344 342 339 338 336 335 330 323 317 315 314 312 310 306 300 294 289 287 286 284 283 280 277 273 269 268 268 269 270 270 270
328 327 325 324 323 332 341 342 340 339 339 340 339 337 336 335 334 331 324 316 312 311 310 309 307 304 299 294 290 287 285 283 281 278 276 272 269 267 267 268 269 269
326 325 322 319 319 325 332 334 333 332 332 335 335 335 335 335 333 330 324 316 309 305 305 305 306 305 302 296 292 288 285 283 281 279 277 275 273 270 268 267 268 268
325 324 320 316 315 319 323 326 325 324 326 329 331 332 333 333 332 330 325 317 309 303 301 301 302 304 303 299 294 289 286 284 282 281 279 277 276 273 270 267 266 266
321 322 320 317 316 316 318 320 320 319 322 325 327 329 331 331 332 330 326 320 314 307 302 299 298 300 301 299 294 290 288 285 283 281 280 279 278 276 274 270 267 265
317 320 321 319 317 315 315 316 316 317 320 323 325 326 328 330 332 330 326 322 317 312 306 300 297 295 296 296 292 289 286 284 283 281 280 279 278 278 278 276 273 270
316 318 320 320 319 317 314 313 314 316 320 322 322 323 325 327 330 328 324 320 317 313 307 302 297 293 292 291 290 289 286 284 282 281 280 279 278 278 278 279 278 276
315 316 319 319 319 317 314 313 315 317 319 319 320 321 322 324 326 325 321 318 317 316 311 305 301 298 295 292 290 289 288 285 283 281 280 280 280 279 279 278 278 278
312 313 316 317 316 315 314 314 316 316 316 316 317 318 320 321 322 321 319 316 316 317 315 311 308 305 301 297 293 291 290 288 285 282 281 282 282 283 282 280 278 278
309 311 312 313 313 314 313 314 314 313 313 313 314 316 318 319 318 318 318 316 314 313 313 312 311 309 307 303 298 296 295 293 289 286 283 282 283 284 285 283 281 278
309 309 310 312 313 313 312 312 312 311 312 312 313 314 315 315 315 315 315 315 314 312 311 308 306 305 304 302 300 299 299 298 295 291 287 284 282 282 283 283 282 280
309 309 311 313 313 313 312 313 313 313 313 313 312 312 312 312 312 312 311 312 312 312 310 306 303 301 300 299 298 298 298 298 296 292 288 286 282 280 280 281 281 281
311 311 312 311 312 313 315 316 316 315 313 311 310 310 310 310 310 309 308 307 308 308 308 306 303 302 302 300 298 297 296 295 293 290 286 284 283 281 279 278 278 279
312 311 311 312 314 317 318 317 316 314 312 309 308 308 309 309 308 307 306 306 307 307 306 304 303 303 304 303 302 299 295 292 290 287 286 284 284 283 281 278 276 276
313 312 313 315 317 318 317 317 316 314 312 309 308 308 308 307 307 307 306 306 306 306 305 304 304 303 304 304 303 301 297 293 288 286 285 285 285 283 282 279 277 276
Height
1534 1534 1533 1533 1532 1532 1531 1531 1531 1530 1530 1529 1529 1529 1528 1528 1528 1528 1528 1528 1528 1528 1528 1529 1529 1528 1528 1528 1528 1527 1528 1527 1527 1527 1526 1527 1527 1527 1527 1526 1525 1525
1534 1533 1533 1532 1532 1532 1531 1531 1530 1530 1529 1529 1528 1528 1527 1527 1527 1527 1527 1526 1526 1526 1526 1527 1527 1527 1527 1527 1526 1526 1526 1526 1526 1526 1526 1526 1525 1525 1524 1523 1523 1523
1533 1533 1532 1532 1531 1531 1530 1530 1530 1529 1528 1528 1527 1527 1526 1526 1526 1525 1525 1525 1524 1524 1524 1524 1525 1525 1525 1525 1525 1524 1524 1524 1524 1524 1524 1524 1523 1522 1522 1522 1521 1521
1532 1532 1531 1531 1530 1530 1530 1529 1529 1528 1528 1527 1526 1526 1525 1525 1524 1524 1523 1523 1522 1522 1522 1522 1522 1522 1523 1522 1522 1522 1522 1522 1522 1522 1521 1521 1521 1521 1520 1519 1519 1519
1531 1531 1530 1530 1529 1529 1529 1528 1528 1527 1527 1526 1525 1525 1524 1523 1523 1522 1521 1521 1520 1520 1520 1520 1520 1520 1520 1520 1520 1520 1520 1520 1520 1519 1519 1519 1519 1518 1518 1517 1517 1516
1531 1530 1530 1529 1529 1528 1528 1527 1527 1526 1525 1525 1524 1523 1522 1521 1521 1520 1520 1519 1519 1518 1518 1517 1517 1517 1517 1517 1517 1517 1517 1517 1517 1517 1517 1516 1516 1516 1516 1515 1515 1514
1530 1530 1529 1529 1528 1527 1527 1526 1525 1525 1524 1523 1522 1522 1521 1520 1519 1519 1518 1517 1517 1516 1516 1515 1515 1515 1515 1515 1515 1515 1515 1515 1514 1514 1514 1514 1513 1513 1513 1513 1512 1512
1529 1529 1528 1528 1527 1526 1526 1525 1524 1524 1523 1522 1521 1521 1520 1519 1518 1517 1516 1516 1515 1515 1514 1513 1513 1513 1512 1512 1512 1512 1512 1512 1512 1512 1511 1511 1511 1511 1511 1511 1510 1509
1528 1528 1527 1526 1526 1525 1524 1524 1523 1522 1522 1521 1520 1519 1518 1517 1516 1515 1515 1514 1513 1513 1512 1512 1511 1511 1510 1510 1510 1510 1510 1510 1509 1509 1509 1508 1508 1508 1508 1508 1508 1507
1527 1527 1526 1525 1525 1524 1523 1523 1522 1521 1521 1520 1519 1518 1517 1516 1515 1514 1513 1512 1511 1511 1510 1510 1509 1508 1508 1508 1508 1508 1507 1507 1507 1507 1507 1506 1506 1505 1505 1505 1505 1505
1526 1526 1525 1524 1524 1523 1522 1522 1521 1520 1520 1519 1518 1516 1515 1514 1513 1512 1511 1510 1509 1509 1508 1507 1507 1506 1506 1506 1505 1505 1505 1505 1504 1504 1504 1504 1503 1503 1503 1502 1502 1502
1525 1525 1524 1523 1523 1522 1521 1521 1520 1519 1518 1517 1516 1515 1514 1512 1511 1510 1509 1508 1507 1506 1506 1505 1505 1504 1503 1503 1503 1503 1502 1502 1502 1502 1501 1501 1501 1501 1500 1500 1499 1499
1524 1524 1523 1522 1522 1521 1520 1519 1519 1518 1517 1516 1515 1513 1512 1511 1509 1508 1507 1506 1505 1504 1504 1503 1502 1502 1501 1501 1501 1500 1500 1499 1499 1499 1499 1498 1498 1498 1498 1497 1496 1496
1523 1523 1522 1521 1520 1519 1519 1518 1517 1516 1515 1514 1513 1511 1510 1509 1507 1506 1505 1504 1503 1502 1501 1501 1500 1500 1499 1499 1498 1498 1497 1497 1496 1496 1496 1495 1495 1495 1495 1495 1494 1494
1522 1521 1520 1520 1519 1518 1517 1516 1516 1515 1514 1513 1511 1510 1508 1507 1505 1504 1502 1501 1500 1500 1499 1499 1498 1497 1497 1496 1496 1495 1494 1494 1493 1493 1492 1492 1492 1492 1492 1492 1491 1491
1521 1520 1519 1518 1517 1517 1516 1515 1514 1513 1512 1511 1509 1508 1506 1505 1503 1502 1500 1499 1498 1497 1496 1496 1495 1495 1494 1494 1493 1492 1492 1491 1490 1490 1489 1489 1489 1488 1488 1488 1488 1488
1519 1518 1518 1517 1516 1515 1514 1513 1512 1511 1510 1509 1507 1506 1504 1502 1501 1499 1498 1497 1495 1494 1494 1493 1492 1492 1492 1491 1491 1490 1489 1488 1487 1487 1486 1486 1485 1485 1484 1484 1484 1485
1518 1517 1516 1515 1514 1513 1512 1511 1510 1509 1508 1506 1504 1503 1501 1500 1499 1497 1496 1495 1493 1492 1491 1490 1490 1489 1489 1489 1488 1487 1486 1485 1484 1484 1483 1482 1482 1481 1481 1481 1481 1481
1516 1515 1514 1513 1512 1511 1510 1509 1508 1506 1505 1504 1502 1500 1499 1497 1496 1495 1493 1492 1491 1490 1489 1488 1488 1487 1486 1486 1485 1484 1483 1482 1481 1480 1479 1479 1479 1478 1478 1477 1477 1477
1514 1513 1512 1511 1510 1509 1508 1506 1505 1504 1502 1501 1500 1498 1497 1495 1494 1492 1491 1490 1489 1488 1487 1486 1485 1485 1484 1483 1482 1481 1480 1479 1478 1477 1476 1475 1475 1474 1474 1474 1474 1473
1512 1511 1510 1509 1508 1507 1505 1504 1503 1501 1500 1499 1497 1496 1494 1493 1491 1490 1489 1488 1487 1486 1484 1483 1483 1482 1481 1480 1479 1478 1477 1476 1475 1473 1473 1472 1471 1471 1471 1470 1470 1470
1510 1509 1508 1507 1506 1504 1503 1502 1500 1499 1497 1496 1494 1493 1491 1490 1489 1487 1486 1485 1484 1483 1481 1480 1479 1479 1478 1477 1476 1475 1474 1473 1472 1470 1469 1468 1468 1468 1467 1467 1466 1466
1509 1507 1506 1505 1503 1502 1501 1499 1498 1496 1495 1493 1491 1490 1488 1487 1486 1484 1483 1482 1481 1480 1478 1476 1475 1475 1475 1474 1473 1472 1471 1470 1468 1467 1466 1465 1464 1464 1463 1463 1463 1462
1507 1505 1504 1503 1501 1500 1499 1497 1495 1494 1492 1490 1489 1487 1485 1484 1483 1481 1480 1479 1478 1476 1475 1473 1472 1471 1471 1470 1469 1469 1467 1466 1465 1463 1462 1461 1460 1460 1460 1459 1459 1459
1505 1504 1502 1501 1500 1498 1497 1495 1493 1491 1489 1487 1486 1484 1482 1481 1480 1478 1477 1476 1475 1473 1472 1471 1469 1468 1468 1467 1466 1465 1464 1462 1461 1459 1458 1457 1456 1456 1455 1455 1455 1455
1503 1502 1501 1499 1498 1496 1494 1492 1490 1488 1486 1485 1483 1482 1480 1479 1477 1476 1474 1473 1471 1470 1468 1467 1466 1464 1464 1463 1462 1461 1460 1458 1457 1455 1454 1453 1452 1451 1451 1450 1450 1450